N1OTX Weather Reports


time (UTC)temp
C
wind
direction
speed
KPH
gust
KPH
rain 1hr
cm
rain 24hr
cm
rain mn
cm
humidity
%
barometer
mb
20260901141019 19 78 1.6 6.4 0.10 0.33 0.33 98 1017.4
20260901140520 19 93 3.2 6.4 0.10 0.33 0.33 98 1017.4
20260901140020 18 134 0.0 6.4 0.13 0.33 0.33 99 1017.4
20260901135520 18 88 3.2 9.7 0.15 0.33 0.33 99 1017.5
20260901135019 18 93 1.6 3.2 0.18 0.33 0.33 99 1017.6
20260901134519 18 94 0.0 3.2 0.20 0.33 0.33 99 1017.7
20260901134100 18 86 1.6 3.2 0.23 0.33 0.33 99 1017.7
20260901133519 18 0.0 0.0 0.25 0.33 0.33 98 1017.7
20260901133019 18 68 0.0 1.6 0.28 0.30 0.30 98 1017.8
20260901132518 18 62 0.0 3.2 0.28 0.30 0.30 98 1017.5
20260901132020 18 33 0.0 1.6 0.28 0.28 0.28 98 1017.7
20260901131520 18 29 0.0 1.6 0.25 0.28 0.28 98 1017.7
20260901131020 18 1 0.0 1.6 0.23 0.25 0.25 98 1017.7
20260901130519 18 57 0.0 3.2 0.23 0.23 0.23 98 1017.5
20260901130059 18 175 0.0 3.2 0.20 0.20 0.20 98 1017.5
20260901125521 18 0.0 0.0 0.18 0.20 0.20 97 1017.7
20260901125021 18 0.0 0.0 0.15 0.18 0.18 97 1017.7
20260901124521 18 0.0 0.0 0.13 0.15 0.15 96 1017.6
20260901124020 18 0.0 0.0 0.10 0.10 0.10 96 1017.6
20260901123520 18 0.0 0.0 0.05 0.08 0.08 96 1017.7
20260901123020 18 0.0 0.0 0.03 0.05 0.05 96 1017.6
20260901122540 18 0.0 0.0 0.00 0.00 0.00 95 1017.6
20260901122019 18 271 0.0 1.6 0.00 0.00 0.00 95 1017.5
20260901121519 18 271 0.0 1.6 0.00 0.00 0.00 95 1017.5
20260901121020 18 0.0 0.0 0.00 0.00 0.00 95 1017.5
20260901120521 18 0.0 0.0 0.00 0.00 0.00 95 1017.6
20260901120101 18 0.0 0.0 0.00 0.00 0.00 95 1017.6
20260901115520 18 0.0 0.0 0.00 0.00 0.00 95 1017.7
20260901115020 18 0.0 0.0 0.00 0.00 0.00 95 1017.7
20260901114519 18 0.0 0.0 0.00 0.00 0.00 95 1017.6
20260901114019 18 0.0 0.0 0.00 0.00 0.00 95 1017.5
20260901113519 18 0.0 0.0 0.00 0.00 0.00 95 1017.6
20260901113023 18 0.0 0.0 0.00 0.00 0.00 94 1017.5
20260901112520 18 0.0 0.0 0.00 0.00 0.00 94 1017.5
20260901112020 18 0.0 0.0 0.00 0.00 0.00 94 1017.5
20260901111540 18 0.0 0.0 0.00 0.00 0.00 94 1017.4
20260901111020 18 272 0.0 1.6 0.00 0.00 0.00 94 1017.4
20260901110540 18 271 0.0 1.6 0.00 0.00 0.00 94 1017.3
20260901110019 18 271 0.0 1.6 0.00 0.00 0.00 94 1017.2
20260901105539 18 0.0 0.0 0.00 0.00 0.00 94 1017.2
20260901105021 18 0.0 0.0 0.00 0.00 0.00 93 1017.3
20260901104520 18 271 0.0 1.6 0.00 0.00 0.00 93 1017.3
20260901104040 18 0.0 0.0 0.00 0.00 0.00 93 1017.2
20260901103621 18 0.0 0.0 0.00 0.00 0.00 93 1017.1
20260901103022 18 0.0 0.0 0.00 0.00 0.00 93 1017.1
20260901102520 18 280 0.0 1.6 0.00 0.00 0.00 93 1017.1
20260901102019 18 303 0.0 1.6 0.00 0.00 0.00 93 1016.9
20260901101539 18 298 0.0 3.2 0.00 0.00 0.00 93 1017.0
20260901101101 18 305 0.0 1.6 0.00 0.00 0.00 93 1017.0
20260901100520 18 307 0.0 1.6 0.00 0.00 0.00 93 1016.8
20260901100020 18 308 0.0 1.6 0.00 0.00 0.00 93 1016.8
20260901095520 18 307 0.0 1.6 0.00 0.00 0.00 92 1016.8
20260901095020 18 309 0.0 1.6 0.00 0.00 0.00 92 1016.8
20260901094519 18 289 0.0 1.6 0.00 0.00 0.00 92 1016.8
20260901094019 18 294 0.0 1.6 0.00 0.00 0.00 92 1016.9
20260901093519 18 302 0.0 1.6 0.00 0.00 0.00 92 1016.8
20260901093021 18 0.0 0.0 0.00 0.00 0.00 92 1016.9
20260901092541 18 0.0 0.0 0.00 0.00 0.00 91 1016.9
20260901092020 18 220 0.0 1.6 0.00 0.00 0.00 90 1016.9
20260901091520 18 0.0 0.0 0.00 0.00 0.00 90 1016.9
20260901091040 18 0.0 0.0 0.00 0.00 0.00 89 1016.9
20260901090520 18 219 0.0 1.6 0.00 0.00 0.00 88 1016.9
20260901090019 18 219 0.0 1.6 0.00 0.00 0.00 87 1016.8
20260901085519 19 227 0.0 3.2 0.00 0.00 0.00 87 1016.8
20260901085021 19 240 0.0 6.4 0.00 0.00 0.00 86 1016.9
20260901084521 19 223 0.0 6.4 0.00 0.00 0.00 85 1016.9
20260901084021 19 185 1.6 3.2 0.00 0.00 0.00 85 1016.9
20260901083520 19 178 0.0 3.2 0.00 0.00 0.00 85 1017.0
20260901083041 19 179 0.0 1.6 0.00 0.00 0.00 85 1017.0
20260901082520 19 0.0 0.0 0.00 0.00 0.00 85 1016.9
20260901082020 19 178 0.0 1.6 0.00 0.00 0.00 84 1017.1
20260901081539 19 0.0 0.0 0.00 0.00 0.00 85 1017.1
20260901081039 19 178 0.0 1.6 0.00 0.00 0.00 84 1017.1
20260901080521 19 179 0.0 1.6 0.00 0.00 0.00 84 1017.3
20260901080041 19 176 0.0 3.2 0.00 0.00 0.00 84 1017.3
20260901075540 19 158 1.6 3.2 0.00 0.00 0.00 83 1017.4
20260901075020 19 169 1.6 3.2 0.00 0.00 0.00 83 1017.3
20260901074520 19 143 0.0 3.2 0.00 0.00 0.00 83 1017.4
20260901074020 19 174 1.6 3.2 0.00 0.00 0.00 83 1017.4
20260901073519 19 175 1.6 4.8 0.00 0.00 0.00 82 1017.5
20260901073019 19 176 1.6 3.2 0.00 0.00 0.00 82 1017.5
20260901072519 19 189 0.0 1.6 0.00 0.00 0.00 82 1017.5
20260901072021 19 192 1.6 3.2 0.00 0.00 0.00 82 1017.5
20260901071518 19 194 1.6 4.8 0.00 0.00 0.00 82 1017.5
20260901071020 19 188 1.6 3.2 0.00 0.00 0.00 81 1017.6
20260901070520 19 197 1.6 6.4 0.00 0.00 0.00 81 1017.6
20260901070040 19 221 1.6 3.2 0.00 0.00 0.00 81 1017.6
20260901065520 19 197 0.0 3.2 0.00 0.00 0.00 81 1017.5
20260901065019 19 216 0.0 1.6 0.00 0.00 0.00 80 1017.5
20260901064539 19 248 0.0 3.2 0.00 0.00 0.00 80 1017.6
20260901064021 19 202 1.6 3.2 0.00 0.00 0.00 80 1017.5
20260901063521 19 171 0.0 4.8 0.00 0.00 0.00 80 1017.6
20260901063022 19 190 1.6 4.8 0.00 0.00 0.00 79 1017.7
20260901062540 19 0.0 0.0 0.00 0.00 0.00 79 1017.8
20260901062020 19 297 0.0 1.6 0.00 0.00 0.00 79 1017.7
20260901061519 19 181 0.0 1.6 0.00 0.00 0.00 79 1017.6
20260901061019 20 185 0.0 3.2 0.00 0.00 0.00 78 1017.7
20260901060521 20 208 0.0 6.4 0.00 0.00 0.00 78 1017.7
20260901060021 20 208 1.6 6.4 0.00 0.00 0.00 78 1017.6
20260901055520 20 195 1.6 6.4 0.00 0.00 0.00 77 1017.6
20260901055020 20 199 1.6 4.8 0.00 0.00 0.00 77 1017.8
20260901054540 20 195 1.6 4.8 0.00 0.00 0.00 76 1017.7
20260901054020 20 209 1.6 9.7 0.00 0.00 0.00 76 1017.7
20260901053520 20 212 1.6 4.8 0.00 0.00 0.00 76 1017.7
20260901053019 20 191 1.6 4.8 0.00 0.00 0.00 75 1017.7
20260901052521 20 200 1.6 6.4 0.00 0.00 0.00 75 1017.6
20260901052021 20 205 1.6 6.4 0.00 0.00 0.00 74 1017.6
20260901051519 20 153 1.6 9.7 0.00 0.00 0.00 73 1017.7
20260901051040 20 191 1.6 9.7 0.00 0.00 0.00 73 1017.7
20260901050520 20 195 1.6 6.4 0.00 0.00 0.00 73 1017.8
20260901050020 20 233 0.0 3.2 0.00 0.00 0.00 74 1017.7
20260901045519 20 209 1.6 3.2 0.00 0.00 0.00 73 1017.7
20260901045019 20 237 0.0 4.8 0.00 0.00 0.00 73 1017.8
20260901044519 20 215 1.6 4.8 0.00 0.00 0.00 72 1017.8
20260901044021 20 235 1.6 6.4 0.00 0.00 0.00 72 1017.8
20260901043521 20 221 1.6 6.4 0.00 0.00 0.00 72 1017.8
20260901043020 20 210 1.6 6.4 0.00 0.00 0.00 72 1017.7
20260901042521 20 182 1.6 6.4 0.00 0.00 0.00 72 1017.8
20260901042020 20 196 3.2 6.4 0.00 0.00 0.00 72 1017.9
20260901041520 20 174 3.2 6.4 0.00 0.00 0.00 73 1017.8
20260901041019 20 203 3.2 6.4 0.00 0.00 0.00 73 1017.8
20260901040519 20 196 3.2 9.7 0.00 0.00 0.00 74 1017.9
20260901040026 20 218 3.2 12.9 0.00 0.00 0.00 74 1017.9
20260901035521 20 209 4.8 12.9 0.00 0.00 0.00 75 1017.9
20260901035021 20 196 3.2 9.7 0.00 0.00 0.00 77 1018.0
20260901034520 20 208 1.6 11.3 0.00 0.00 0.00 77 1018.0
20260901034020 20 198 3.2 9.7 0.00 0.00 0.00 78 1017.9
20260901033540 20 206 3.2 12.9 0.00 0.00 0.00 79 1017.8
20260901033020 20 177 3.2 9.7 0.00 0.00 0.00 79 1017.9
20260901032519 20 190 4.8 12.9 0.00 0.00 0.00 79 1018.0
20260901032039 20 197 4.8 11.3 0.00 0.00 0.00 80 1017.9
20260901031519 20 215 3.2 9.7 0.00 0.00 0.00 81 1017.9
20260901031041 20 194 3.2 6.4 0.00 0.00 0.00 81 1017.9
20260901030600 20 183 3.2 11.3 0.00 0.00 0.00 81 1017.8
20260901030020 20 179 3.2 9.7 0.00 0.00 0.00 81 1017.8
20260901025520 20 203 4.8 11.3 0.00 0.00 0.00 81 1017.8
20260901025020 20 206 3.2 11.3 0.00 0.00 0.00 81 1017.9
20260901024600 20 203 3.2 9.7 0.00 0.00 0.00 81 1017.8
20260901024019 20 186 3.2 6.4 0.00 0.00 0.00 80 1017.8
20260901023521 20 179 3.2 9.7 0.00 0.00 0.00 80 1017.8
20260901023021 20 190 3.2 6.4 0.00 0.00 0.00 80 1017.8
20260901022541 20 197 3.2 6.4 0.00 0.00 0.00 80 1017.8
20260901022020 20 194 3.2 12.9 0.00 0.00 0.00 80 1017.6
20260901021520 20 188 3.2 12.9 0.00 0.00 0.00 79 1017.8
20260901021040 20 211 1.6 9.7 0.00 0.00 0.00 79 1017.8
20260901020519 20 191 3.2 6.4 0.00 0.00 0.00 79 1017.9
20260901020040 20 196 3.2 9.7 0.00 0.00 0.00 78 1017.7
20260901015539 20 179 3.2 6.4 0.00 0.00 0.00 78 1017.8
20260901015021 20 218 1.6 11.3 0.00 0.00 0.00 78 1017.8
20260901014521 20 202 4.8 11.3 0.00 0.00 0.00 77 1017.9
20260901014020 21 194 3.2 11.3 0.00 0.00 0.00 76 1017.9
20260901013525 21 203 4.8 12.9 0.00 0.00 0.00 76 1017.9
20260901013020 21 208 3.2 9.7 0.00 0.00 0.00 75 1018.0
20260901012521 21 201 1.6 4.8 0.00 0.00 0.00 75 1018.0
20260901012020 21 192 3.2 11.3 0.00 0.00 0.00 75 1018.1
20260901011544 21 202 3.2 6.4 0.00 0.00 0.00 74 1018.0
20260901011039 21 203 3.2 6.4 0.00 0.00 0.00 75 1018.0
20260901010521 21 205 1.6 11.3 0.00 0.00 0.00 75 1017.9
20260901010020 20 196 3.2 11.3 0.00 0.00 0.00 75 1017.9
20260901005520 20 197 1.6 3.2 0.00 0.00 0.00 75 1017.9
20260901005020 20 220 0.0 3.2 0.00 0.00 0.00 75 1017.8
20260901004520 20 203 0.0 3.2 0.00 0.00 0.00 75 1017.7
20260901004020 20 212 0.0 4.8 0.00 0.00 0.00 76 1017.8
20260901003519 20 209 0.0 4.8 0.00 0.00 0.00 74 1017.7
20260901003019 20 192 0.0 3.2 0.00 0.00 0.00 75 1017.7
20260901002521 20 158 0.0 1.6 0.00 0.00 0.00 74 1017.7
20260901002020 20 158 0.0 3.2 0.00 0.00 0.00 74 1017.7
20260901001539 20 177 0.0 3.2 0.00 0.00 0.00 75 1017.8
20260901001020 20 189 0.0 3.2 0.00 0.00 0.00 75 1017.7
20260901000520 20 0.0 0.0 0.00 0.00 0.00 74 1017.7
20260901000020 20 189 0.0 1.6 0.00 0.00 0.00 74 1017.7
20260831235520 20 0.0 0.0 0.00 0.00 0.00 73 1017.7
20260831235059 20 0.0 0.0 0.00 0.00 0.00 73 1017.7
20260831234519 20 0.0 0.0 0.00 0.00 0.00 71 1017.7
20260831234021 20 0.0 0.0 0.00 0.00 0.00 72 1017.8
20260831233520 20 0.0 0.0 0.00 0.00 0.00 71 1017.8
20260831233020 20 0.0 0.0 0.00 0.00 0.00 70 1017.7
20260831232520 21 0.0 0.0 0.00 0.00 0.00 69 1017.8
20260831232020 21 0.0 0.0 0.00 0.00 0.00 71 1017.9
20260831231520 21 0.0 0.0 0.00 0.00 0.00 67 1017.9
20260831231019 21 0.0 0.0 0.00 0.00 0.00 66 1017.9
20260831230519 21 0.0 0.0 0.00 0.00 0.00 65 1017.9
20260831230019 21 0.0 0.0 0.00 0.00 0.00 64 1018.1
20260831225520 21 0.0 0.0 0.00 0.00 0.00 63 1018.0
20260831225020 21 0.0 0.0 0.00 0.00 0.00 64 1017.9
20260831224522 22 0.0 0.0 0.00 0.00 0.00 65 1018.0
20260831224020 22 0.0 0.0 0.00 0.00 0.00 64 1017.9
20260831223540 22 0.0 0.0 0.00 0.00 0.00 64 1018.1
20260831223020 22 188 0.0 1.6 0.00 0.00 0.00 61 1018.1
20260831222539 23 188 0.0 3.2 0.00 0.00 0.00 60 1018.1
20260831222019 23 196 1.6 9.7 0.00 0.00 0.00 58 1018.0
20260831221519 22 242 0.0 3.2 0.00 0.00 0.00 58 1018.1
20260831221020 23 0.0 1.6 0.00 0.00 0.00 60 1018.0
20260831220540 23 228 0.0 1.6 0.00 0.00 0.00 58 1018.0
20260831220040 23 220 0.0 3.2 0.00 0.00 0.00 55 1018.0
20260831215520 23 183 1.6 6.4 0.00 0.00 0.00 54 1017.8
20260831215020 24 184 1.6 4.8 0.00 0.00 0.00 53 1017.9
20260831214519 24 223 1.6 4.8 0.00 0.00 0.00 52 1017.8
20260831214019 24 262 1.6 4.8 0.00 0.00 0.00 53 1017.9
20260831213521 24 196 1.6 6.4 0.00 0.00 0.00 51 1018.0
20260831213041 24 175 4.8 11.3 0.00 0.00 0.00 51 1018.0
20260831212521 24 282 1.6 11.3 0.00 0.00 0.00 50 1018.1
20260831212020 24 221 3.2 6.4 0.00 0.00 0.00 52 1018.1
20260831211540 24 157 1.6 3.2 0.00 0.00 0.00 53 1018.1
20260831211020 24 253 0.0 3.2 0.00 0.00 0.00 54 1018.0
20260831210519 24 186 1.6 3.2 0.00 0.00 0.00 52 1018.1
20260831210019 24 260 0.0 3.2 0.00 0.00 0.00 53 1018.1
20260831205519 24 250 0.0 3.2 0.00 0.00 0.00 50 1018.1
20260831205021 24 248 0.0 3.2 0.00 0.00 0.00 50 1018.1
20260831204520 25 286 0.0 6.4 0.00 0.00 0.00 50 1018.1
20260831204020 24 186 1.6 12.9 0.00 0.00 0.00 47 1018.1
20260831203520 24 213 1.6 3.2 0.00 0.00 0.00 48 1018.2
20260831203020 24 320 1.6 4.8 0.00 0.00 0.00 48 1018.1
20260831202519 25 277 3.2 11.3 0.00 0.00 0.00 48 1018.0
20260831202040 25 184 1.6 6.4 0.00 0.00 0.00 47 1017.9
20260831201519 25 178 1.6 9.7 0.00 0.00 0.00 46 1018.1
20260831201019 25 204 1.6 4.8 0.00 0.00 0.00 45 1018.0
20260831200520 25 283 1.6 6.4 0.00 0.00 0.00 45 1018.1
20260831200020 25 188 1.6 6.4 0.00 0.00 0.00 45 1018.2
20260831195540 25 283 3.2 6.4 0.00 0.00 0.00 45 1018.2
20260831195020 25 57 1.6 9.7 0.00 0.00 0.00 45 1018.2
20260831194520 25 185 1.6 6.4 0.00 0.00 0.00 45 1018.3
20260831194020 25 354 1.6 6.4 0.00 0.00 0.00 44 1018.3
20260831193519 25 204 3.2 11.3 0.00 0.00 0.00 45 1018.4
20260831193019 25 3 1.6 4.8 0.00 0.00 0.00 45 1018.4
20260831192521 25 316 1.6 6.4 0.00 0.00 0.00 45 1018.5
20260831192020 25 260 1.6 6.4 0.00 0.00 0.00 47 1018.6
20260831191518 25 205 1.6 9.7 0.00 0.00 0.00 47 1018.5
20260831191040 25 192 3.2 9.7 0.00 0.00 0.00 46 1018.5
20260831190540 25 128 1.6 4.8 0.00 0.00 0.00 46 1018.6
20260831190039 25 77 0.0 4.8 0.00 0.00 0.00 44 1018.6
20260831185539 25 166 1.6 4.8 0.00 0.00 0.00 44 1018.6
20260831185039 25 332 1.6 4.8 0.00 0.00 0.00 45 1018.8
20260831184519 25 345 1.6 3.2 0.00 0.00 0.00 45 1018.8
20260831184041 25 18 0.0 1.6 0.00 0.00 0.00 46 1019.0
20260831183540 25 3 1.6 4.8 0.00 0.00 0.00 48 1019.0
20260831183022 25 337 1.6 4.8 0.00 0.00 0.00 44 1019.0
20260831182519 25 291 1.6 4.8 0.00 0.00 0.00 46 1019.1
20260831182019 25 44 0.0 4.8 0.00 0.00 0.00 41 1019.1
20260831181519 25 247 1.6 4.8 0.00 0.00 0.00 45 1019.1
20260831181019 25 44 1.6 4.8 0.00 0.00 0.00 44 1019.2
20260831180521 25 283 1.6 6.4 0.00 0.00 0.00 46 1019.1
20260831180020 25 159 1.6 4.8 0.00 0.00 0.00 44 1019.0
20260831175519 25 288 1.6 4.8 0.00 0.00 0.00 43 1019.1
20260831175019 25 181 3.2 6.4 0.00 0.00 0.00 43 1019.1
20260831174519 25 174 1.6 4.8 0.00 0.00 0.00 41 1019.2
20260831174021 25 85 1.6 6.4 0.00 0.00 0.00 42 1019.2
20260831173540 25 152 1.6 6.4 0.00 0.00 0.00 42 1019.3
20260831173020 25 82 1.6 4.8 0.00 0.00 0.00 42 1019.3
20260831172520 25 114 3.2 9.7 0.00 0.00 0.00 44 1019.4
20260831172020 25 118 4.8 9.7 0.00 0.00 0.00 45 1019.4
20260831171540 24 116 1.6 4.8 0.00 0.00 0.00 46 1019.5
20260831171019 24 349 0.0 4.8 0.00 0.00 0.00 49 1019.6
20260831170519 24 232 3.2 6.4 0.00 0.00 0.00 49 1019.6
20260831170019 24 119 1.6 3.2 0.00 0.00 0.00 49 1019.6
20260831165520 24 73 1.6 4.8 0.00 0.00 0.00 43 1019.7
20260831165040 24 353 1.6 4.8 0.00 0.00 0.00 49 1019.8
20260831164520 24 62 0.0 1.6 0.00 0.00 0.00 47 1019.8
20260831164020 23 112 0.0 1.6 0.00 0.00 0.00 48 1019.8
20260831163520 24 87 0.0 1.6 0.00 0.00 0.00 47 1019.7
20260831163019 23 357 0.0 3.2 0.00 0.00 0.00 50 1019.8
20260831162519 23 55 1.6 4.8 0.00 0.00 0.00 45 1020.0
20260831162039 23 65 1.6 4.8 0.00 0.00 0.00 46 1020.0
20260831161521 23 314 0.0 3.2 0.00 0.00 0.00 47 1020.0
20260831161020 24 308 1.6 3.2 0.00 0.00 0.00 44 1020.0
20260831160521 24 34 1.6 4.8 0.00 0.00 0.00 47 1020.1
20260831160020 24 245 1.6 4.8 0.00 0.00 0.00 48 1020.2
20260831155520 23 217 1.6 4.8 0.00 0.00 0.00 47 1020.2
20260831155019 23 253 1.6 4.8 0.00 0.00 0.00 49 1020.2
20260831154519 23 93 3.2 12.9 0.00 0.00 0.00 47 1020.2
20260831154019 23 92 4.8 12.9 0.00 0.00 0.00 49 1020.3
20260831153519 23 119 3.2 4.8 0.00 0.00 0.00 54 1020.3
20260831153021 23 240 1.6 1.6 0.00 0.00 0.00 52 1020.4
20260831152520 23 140 1.6 6.4 0.00 0.00 0.00 52 1020.4
20260831152020 23 115 4.8 12.9 0.00 0.00 0.00 50 1020.5
20260831151520 23 89 3.2 6.4 0.00 0.00 0.00 52 1020.5
20260831151020 23 51 1.6 6.4 0.00 0.00 0.00 51 1020.5
20260831150520 23 150 1.6 6.4 0.00 0.00 0.00 50 1020.3
20260831150019 23 150 3.2 6.4 0.00 0.00 0.00 52 1020.5
20260831145519 22 174 1.6 4.8 0.00 0.00 0.00 58 1020.5
20260831145019 22 160 1.6 1.6 0.00 0.00 0.00 53 1020.4
20260831144521 22 160 1.6 3.2 0.00 0.00 0.00 53 1020.6
20260831144020 22 93 1.6 4.8 0.00 0.00 0.00 52 1020.7
20260831143540 22 75 0.0 4.8 0.00 0.00 0.00 51 1020.7
20260831143100 22 66 1.6 4.8 0.00 0.00 0.00 56 1020.7
20260831142520 22 140 0.0 3.2 0.00 0.00 0.00 50 1020.5
20260831142020 22 158 1.6 6.4 0.00 0.00 0.00 50 1020.5
20260831141519 22 114 3.2 6.4 0.00 0.00 0.00 51 1020.4